This is the latest recevied weather packets stored in our database for station/object G0TQM-11. If no packets are shown the sender has not sent any weather packets the latest 10 day(s).
| Time | Temp. | Humidity | Pressure | Rain* | Wind** | Luminosity | Snow |
|---|---|---|---|---|---|---|---|
| 1788494520 | 18.33° C | 76% | 1004.3 hPa | - | - | - | - |
| 1788493319 | 18.33° C | 76% | 1004.2 hPa | - | - | - | - |
| 1788492119 | 18.89° C | 76% | 1004.1 hPa | - | - | - | - |
| 1788490919 | 18.89° C | 76% | 1004.4 hPa | - | - | - | - |
| 1788489719 | 18.89° C | 76% | 1004.3 hPa | - | - | - | - |
| 1788488519 | 19.44° C | 77% | 1004 hPa | - | - | - | - |
| 1788487318 | 18.89° C | 77% | 1004.2 hPa | - | - | - | - |
| 1788486118 | 18.89° C | 77% | 1004.5 hPa | - | - | - | - |
| 1788484918 | 18.89° C | 77% | 1004.3 hPa | - | - | - | - |
| 1788483718 | 19.44° C | 73% | 1004.8 hPa | - | - | - | - |
| 1788482518 | 19.44° C | 73% | 1004.7 hPa | - | - | - | - |
| 1788481318 | 20.56° C | 71% | 1004.8 hPa | - | - | - | - |
| 1788480117 | 20.56° C | 71% | 1004.8 hPa | - | - | - | - |
| 1788478917 | 20.56° C | 71% | 1005.2 hPa | - | - | - | - |
| 1788477717 | 20° C | 70% | 1005.5 hPa | - | - | - | - |
| 1788476517 | 19.44° C | 71% | 1006.6 hPa | - | - | - | - |
| 1788475317 | 18.89° C | 71% | 1006.9 hPa | - | - | - | - |
| 1788474117 | 18.89° C | 70% | 1007.1 hPa | - | - | - | - |
| 1788472916 | 18.89° C | 70% | 1007.4 hPa | - | - | - | - |
| 1788471716 | 18.89° C | 69% | 1007.6 hPa | - | - | - | - |
| 1788470516 | 19.44° C | 67% | 1007.7 hPa | - | - | - | - |
| 1788469316 | 20° C | 67% | 1007.7 hPa | - | - | - | - |
| 1788468116 | 19.44° C | 66% | 1008 hPa | - | - | - | - |
| 1788466916 | 19.44° C | 65% | 1008.3 hPa | - | - | - | - |
| 1788465716 | 20.56° C | 63% | 1008.6 hPa | - | - | - | - |
* Rain since midnight (hover to see other rain measurements)
** Current wind speed in m/s (hover to see current wind gust speed)